Location: Presov
(49.0000°N, 21.2500°E)
Time: 06:35:36
(UTC+02:00)

Transit 2A Rocket - Pass Details

Date: 15 April 2021
Orbit: 594 x 909 km, 66.7° (Epoch: 07 May)

Event Time Altitude Azimuth Distance (km) Brightness Sun altitude
Rises 01:41:26 0° 323° (NW) 2,863 8.4 -29.4°
Reaches altitude 10° 01:43:38 10° 321° (NW) 1,975 7.5 -29.3°
Enters shadow 01:45:19 23° 319° (NW) 1,329 6.5 -29.2°
Maximum altitude 01:48:03 76° 237° (WSW) 662 - -29.1°
Drops below altitude 10° 01:52:45 10° 152° (SSE) 2,100 - -28.8°
Sets 01:55:09 0° 151° (SSE) 3,060 - -28.6°
